Temp
0 0 -0 -1 -1 -1 -1 -2 -2 -2 -2 -3 -3 -3 -3 -4 -4 -4 -4 -4 -5 -5 -5 -6 -6 -7 -7 -8 -8 -9 -9 -10 -10 -10 -10 -10 -10 -10 -10 -10 -10 -10 -10 -10 -10 -9 -9 -10 -9 -9 -9 -9 -9 -9 -9 -10 -10 -10 -9 -9 -9 -9 -9 -9 -9 -9 -9 -9 -10
0 0 -0 -1 -1 -1 -1 -2 -2 -2 -2 -3 -3 -3 -3 -4 -4 -4 -4 -4 -5 -5 -5 -6 -6 -7 -7 -8 -8 -9 -9 -9 -10 -10 -10 -10 -10 -10 -10 -10 -10 -10 -10 -10 -10 -10 -10 -10 -10 -9 -9 -9 -9 -9 -9 -9 -9 -9 -9 -9 -9 -9 -9 -9 -9 -9 -9 -9 -9
0 -0 -0 -1 -1 -1 -1 -2 -2 -2 -2 -3 -3 -3 -3 -4 -4 -4 -4 -5 -5 -5 -5 -6 -6 -7 -7 -8 -8 -9 -9 -9 -10 -10 -10 -10 -10 -10 -10 -10 -10 -10 -10 -10 -10 -10 -10 -10 -10 -9 -9 -9 -9 -9 -9 -9 -9 -9 -9 -9 -9 -9 -9 -9 -9 -9 -9 -9 -9
0 -0 -0 -1 -1 -1 -2 -2 -2 -2 -3 -3 -3 -3 -4 -4 -4 -4 -4 -5 -5 -5 -5 -6 -6 -7 -7 -7 -8 -8 -9 -9 -10 -10 -10 -10 -10 -10 -10 -10 -10 -10 -10 -10 -10 -10 -10 -10 -10 -10 -9 -9 -9 -9 -9 -9 -9 -9 -9 -9 -9 -9 -9 -9 -9 -9 -9 -9 -9
0 -0 -0 -1 -1 -1 -2 -2 -2 -2 -3 -3 -3 -3 -4 -4 -4 -4 -4 -5 -5 -5 -6 -6 -6 -6 -7 -7 -8 -8 -9 -9 -9 -10 -10 -10 -10 -10 -10 -10 -10 -10 -10 -10 -10 -10 -10 -10 -10 -10 -9 -9 -9 -9 -9 -9 -9 -9 -9 -9 -9 -9 -9 -9 -9 -9 -9 -9 -9
0 -0 -1 -1 -1 -2 -2 -2 -2 -3 -3 -3 -3 -3 -4 -4 -4 -4 -4 -5 -5 -5 -5 -6 -6 -6 -7 -7 -8 -8 -9 -9 -9 -9 -10 -10 -10 -10 -10 -10 -10 -10 -10 -10 -10 -10 -10 -10 -10 -10 -10 -9 -9 -9 -9 -9 -9 -9 -9 -9 -9 -10 -10 -10 -10 -10 -10 -9 -9
0 -0 -1 -1 -1 -2 -2 -2 -2 -3 -3 -3 -3 -4 -4 -4 -4 -4 -4 -5 -5 -5 -5 -6 -6 -6 -7 -7 -8 -8 -8 -9 -9 -9 -9 -9 -9 -10 -10 -10 -10 -10 -10 -10 -10 -10 -10 -10 -10 -10 -10 -10 -9 -9 -9 -9 -9 -9 -9 -9 -9 -10 -10 -10 -10 -10 -10 -10 -10
0 -0 -1 -1 -1 -2 -2 -2 -3 -3 -3 -3 -3 -4 -4 -4 -4 -4 -5 -5 -5 -5 -5 -6 -6 -6 -7 -7 -8 -8 -8 -9 -9 -9 -9 -9 -9 -9 -9 -10 -10 -10 -10 -10 -10 -10 -10 -10 -10 -10 -10 -10 -10 -9 -9 -9 -9 -9 -9 -9 -10 -10 -10 -10 -10 -10 -10 -10 -10
-0 -0 -1 -1 -1 -2 -2 -2 -3 -3 -3 -3 -4 -4 -4 -4 -4 -4 -4 -5 -5 -5 -5 -6 -6 -6 -7 -7 -7 -8 -8 -9 -9 -9 -9 -9 -9 -9 -9 -9 -10 -10 -10 -10 -10 -10 -10 -10 -10 -10 -10 -10 -10 -10 -10 -10 -10 -10 -10 -10 -10 -10 -10 -10 -10 -10 -10 -10 -10
-0 -0 -1 -1 -2 -2 -2 -2 -3 -3 -3 -3 -4 -4 -4 -4 -4 -4 -4 -5 -5 -5 -5 -6 -6 -6 -7 -7 -7 -8 -8 -8 -9 -9 -9 -9 -9 -9 -9 -9 -10 -10 -10 -10 -10 -10 -10 -10 -10 -10 -10 -10 -10 -10 -10 -10 -10 -10 -10 -10 -10 -10 -10 -10 -10 -10 -10 -10 -10
-0 -1 -1 -1 -2 -2 -2 -2 -3 -3 -3 -3 -4 -4 -4 -4 -4 -4 -4 -5 -5 -5 -5 -6 -6 -6 -7 -7 -7 -8 -8 -8 -8 -9 -9 -9 -9 -9 -9 -9 -9 -10 -10 -10 -10 -10 -10 -10 -10 -10 -10 -10 -10 -10 -10 -10 -10 -10 -10 -10 -10 -10 -10 -10 -10 -10 -10 -10 -10
-0 -1 -1 -1 -2 -2 -2 -2 -3 -3 -3 -3 -4 -4 -4 -4 -4 -4 -5 -5 -5 -5 -5 -6 -6 -6 -7 -7 -7 -8 -8 -8 -8 -8 -9 -9 -9 -9 -9 -9 -9 -10 -10 -10 -10 -10 -10 -10 -10 -10 -10 -10 -10 -10 -10 -10 -10 -10 -10 -10 -10 -10 -10 -10 -10 -10 -10 -10 -10
-0 -0 -1 -1 -2 -2 -2 -2 -3 -3 -3 -3 -4 -4 -4 -4 -4 -4 -5 -5 -5 -5 -5 -6 -6 -6 -7 -7 -7 -8 -8 -8 -8 -8 -8 -9 -9 -9 -9 -9 -9 -9 -10 -10 -10 -10 -10 -10 -10 -10 -10 -10 -10 -10 -10 -10 -10 -10 -10 -10 -10 -10 -10 -10 -10 -10 -10 -10 -10
-0 -0 -1 -1 -1 -2 -2 -2 -3 -3 -3 -3 -4 -4 -4 -4 -4 -4 -5 -5 -5 -5 -5 -6 -6 -6 -6 -7 -7 -7 -8 -8 -8 -8 -8 -8 -9 -9 -9 -9 -9 -9 -10 -10 -10 -10 -10 -10 -10 -10 -10 -10 -10 -10 -10 -10 -10 -10 -10 -10 -10 -10 -10 -10 -10 -10 -10 -10 -10
-0 -0 -1 -1 -1 -2 -2 -2 -3 -3 -3 -3 -4 -4 -4 -4 -4 -4 -5 -5 -5 -5 -5 -5 -6 -6 -6 -7 -7 -7 -8 -8 -8 -8 -8 -8 -9 -9 -9 -9 -9 -9 -10 -10 -10 -10 -10 -10 -10 -10 -10 -10 -10 -10 -10 -10 -10 -10 -10 -10 -10 -10 -10 -10 -10 -10 -10 -10 -10
-0 -0 -1 -1 -1 -2 -2 -2 -3 -3 -3 -3 -4 -4 -4 -4 -4 -4 -5 -5 -5 -5 -5 -5 -6 -6 -6 -7 -7 -7 -7 -8 -8 -8 -8 -8 -9 -9 -9 -9 -9 -9 -10 -10 -10 -10 -10 -10 -10 -10 -10 -10 -10 -10 -10 -10 -10 -10 -10 -10 -10 -10 -10 -10 -10 -10 -10 -10 -10
-0 -1 -1 -1 -1 -2 -2 -2 -3 -3 -3 -3 -4 -4 -4 -4 -4 -4 -5 -5 -5 -5 -5 -5 -6 -6 -6 -6 -7 -7 -7 -7 -8 -8 -8 -8 -9 -9 -9 -9 -9 -9 -9 -10 -10 -10 -10 -10 -10 -10 -10 -10 -10 -10 -10 -10 -10 -10 -10 -10 -10 -10 -10 -10 -10 -10 -10 -10 -10
-0 -1 -1 -1 -1 -2 -2 -2 -3 -3 -3 -3 -4 -4 -4 -4 -4 -4 -5 -5 -5 -5 -5 -5 -5 -6 -6 -6 -7 -7 -7 -7 -7 -8 -8 -8 -8 -9 -9 -9 -9 -9 -9 -9 -10 -10 -10 -10 -10 -10 -10 -10 -10 -10 -10 -10 -10 -10 -10 -10 -10 -10 -10 -10 -10 -10 -10 -10 -10
-0 -1 -1 -1 -1 -2 -2 -2 -3 -3 -3 -3 -3 -4 -4 -4 -4 -4 -5 -5 -5 -5 -5 -5 -5 -6 -6 -6 -6 -7 -7 -7 -7 -7 -8 -8 -8 -9 -9 -9 -9 -9 -9 -9 -9 -10 -10 -10 -10 -10 -10 -10 -10 -10 -10 -10 -10 -10 -10 -10 -10 -10 -10 -10 -10 -10 -10 -10 -10
-0 -1 -1 -1 -1 -2 -2 -2 -3 -3 -3 -3 -3 -4 -4 -4 -4 -4 -5 -5 -5 -5 -5 -5 -5 -6 -6 -6 -6 -6 -7 -7 -7 -7 -8 -8 -8 -8 -8 -9 -9 -9 -9 -9 -9 -10 -10 -10 -10 -10 -10 -10 -10 -10 -10 -10 -10 -10 -10 -10 -10 -10 -10 -10 -10 -10 -10 -10 -10
-0 -1 -1 -1 -1 -2 -2 -2 -3 -3 -3 -3 -3 -4 -4 -4 -4 -4 -5 -5 -5 -5 -5 -5 -5 -6 -6 -6 -6 -6 -7 -7 -7 -7 -7 -8 -8 -8 -8 -8 -8 -8 -9 -9 -9 -9 -10 -10 -10 -10 -10 -10 -10 -10 -10 -10 -10 -10 -10 -10 -10 -10 -10 -10 -10 -10 -10 -10 -10
-0 -1 -1 -1 -1 -2 -2 -2 -2 -3 -3 -3 -3 -4 -4 -4 -4 -4 -5 -5 -5 -5 -5 -5 -6 -6 -6 -6 -6 -6 -6 -7 -7 -7 -7 -7 -8 -8 -8 -8 -8 -8 -8 -9 -9 -9 -10 -10 -10 -10 -10 -10 -10 -10 -10 -10 -10 -10 -10 -10 -10 -10 -10 -10 -10 -10 -10 -10 -10
-0 -1 -1 -1 -1 -2 -2 -2 -2 -3 -3 -3 -3 -4 -4 -4 -4 -4 -5 -5 -5 -5 -5 -5 -6 -6 -6 -6 -6 -6 -7 -7 -7 -7 -7 -7 -7 -7 -7 -8 -8 -8 -8 -8 -9 -9 -9 -10 -10 -10 -10 -10 -10 -10 -10 -10 -10 -10 -10 -10 -10 -10 -10 -10 -10 -10 -9 -9 -9
-1 -1 -1 -1 -1 -2 -2 -2 -2 -3 -3 -3 -3 -4 -4 -4 -4 -4 -5 -5 -5 -5 -5 -5 -6 -6 -6 -6 -6 -6 -7 -7 -7 -7 -7 -7 -7 -7 -7 -7 -8 -8 -8 -8 -9 -9 -9 -10 -10 -10 -10 -10 -10 -10 -10 -10 -10 -10 -10 -10 -10 -10 -9 -9 -9 -9 -9 -9 -9
-1 -1 -1 -1 -1 -2 -2 -2 -2 -3 -3 -3 -3 -4 -4 -4 -4 -4 -5 -5 -5 -5 -5 -5 -6 -6 -6 -6 -6 -6 -7 -7 -7 -7 -7 -7 -7 -7 -7 -7 -7 -8 -8 -8 -9 -9 -10 -10 -11 -10 -10 -10 -10 -10 -10 -9 -9 -9 -9 -9 -9 -9 -9 -9 -9 -9 -8 -8 -8
-1 -1 -1 -1 -1 -2 -2 -2 -2 -3 -3 -3 -3 -4 -4 -4 -4 -4 -5 -5 -5 -5 -5 -5 -6 -6 -6 -6 -6 -6 -6 -7 -7 -7 -7 -7 -7 -7 -7 -7 -7 -8 -8 -8 -8 -9 -10 -10 -10 -10 -10 -9 -9 -9 -9 -9 -9 -9 -9 -9 -9 -9 -9 -9 -9 -8 -8 -8 -8
-0 -1 -1 -1 -1 -1 -2 -2 -2 -3 -3 -3 -3 -4 -4 -4 -4 -4 -5 -5 -5 -5 -5 -5 -5 -6 -6 -6 -6 -6 -6 -6 -7 -7 -7 -7 -7 -7 -7 -7 -7 -8 -8 -8 -8 -9 -10 -10 -10 -10 -9 -9 -9 -9 -9 -9 -9 -9 -9 -9 -9 -9 -9 -9 -9 -8 -8 -8 -8
-0 -1 -1 -1 -1 -1 -2 -2 -2 -2 -3 -3 -3 -4 -4 -4 -4 -4 -5 -5 -5 -5 -5 -5 -5 -6 -6 -6 -6 -6 -6 -6 -7 -7 -7 -7 -7 -7 -7 -7 -7 -8 -8 -8 -8 -9 -10 -10 -10 -10 -9 -9 -9 -9 -9 -9 -9 -9 -9 -9 -9 -9 -9 -9 -9 -9 -9 -9 -9
-0 -1 -1 -1 -1 -1 -2 -2 -2 -2 -3 -3 -3 -3 -4 -4 -4 -4 -5 -5 -5 -5 -5 -5 -5 -6 -6 -6 -6 -6 -6 -6 -7 -7 -7 -7 -7 -7 -7 -7 -7 -7 -8 -8 -8 -8 -9 -10 -10 -10 -9 -9 -9 -9 -9 -8 -9 -9 -9 -9 -9 -9 -9 -9 -9 -9 -9 -9 -9
-0 -1 -1 -1 -1 -1 -2 -2 -2 -2 -3 -3 -3 -3 -4 -4 -4 -4 -5 -5 -5 -5 -5 -5 -5 -6 -6 -6 -6 -6 -6 -6 -7 -7 -7 -7 -7 -7 -7 -7 -7 -7 -8 -8 -8 -8 -9 -9 -10 -9 -9 -9 -9 -9 -8 -8 -9 -9 -9 -9 -9 -9 -9 -9 -9 -9 -9 -9 -9
-0 -1 -1 -1 -1 -1 -2 -2 -2 -2 -3 -3 -3 -3 -4 -4 -4 -4 -5 -5 -5 -5 -5 -5 -5 -5 -6 -6 -6 -6 -6 -6 -6 -7 -7 -7 -7 -7 -7 -7 -7 -7 -7 -8 -7 -8 -8 -9 -9 -9 -9 -9 -8 -8 -8 -8 -8 -8 -8 -9 -9 -9 -9 -9 -9 -9 -9 -9 -9
-0 -1 -1 -1 -1 -1 -2 -2 -2 -2 -3 -3 -3 -3 -4 -4 -4 -4 -5 -5 -5 -5 -5 -5 -5 -5 -6 -6 -6 -6 -6 -6 -6 -7 -7 -7 -7 -7 -7 -7 -7 -7 -7 -7 -7 -7 -8 -9 -9 -9 -9 -8 -8 -8 -8 -8 -8 -8 -8 -8 -8 -8 -8 -8 -8 -8 -8 -8 -8
-0 -0 -1 -1 -1 -1 -2 -2 -2 -2 -2 -3 -3 -3 -3 -4 -4 -4 -5 -5 -5 -5 -5 -5 -5 -5 -6 -6 -6 -6 -6 -6 -6 -7 -7 -7 -7 -7 -7 -7 -7 -7 -7 -7 -7 -7 -8 -9 -9 -9 -9 -8 -8 -8 -8 -8 -8 -8 -8 -8 -8 -8 -8 -8 -8 -8 -8 -8 -8
-0 -0 -0 -1 -1 -1 -2 -2 -2 -2 -2 -3 -3 -3 -3 -4 -4 -4 -5 -5 -5 -5 -5 -5 -5 -5 -6 -6 -6 -6 -6 -6 -6 -6 -7 -7 -7 -7 -7 -7 -7 -7 -7 -7 -7 -7 -8 -9 -9 -9 -8 -8 -8 -8 -8 -8 -8 -8 -8 -8 -8 -8 -8 -8 -8 -8 -8 -8 -8
-0 -0 -0 -1 -1 -1 -2 -2 -2 -2 -2 -2 -3 -3 -3 -4 -4 -4 -4 -5 -5 -5 -5 -5 -5 -5 -6 -6 -6 -6 -6 -6 -6 -6 -6 -7 -7 -7 -7 -7 -7 -7 -7 -7 -7 -7 -8 -8 -9 -9 -8 -8 -8 -8 -8 -8 -8 -8 -8 -8 -8 -8 -8 -8 -8 -8 -8 -8 -8
-0 -0 -0 -1 -1 -1 -1 -2 -2 -2 -2 -2 -3 -3 -3 -4 -4 -4 -4 -5 -5 -5 -5 -5 -5 -5 -5 -6 -6 -6 -6 -6 -6 -6 -6 -7 -7 -7 -7 -6 -6 -6 -7 -7 -7 -7 -7 -8 -8 -8 -8 -8 -8 -8 -8 -8 -8 -7 -7 -8 -8 -8 -8 -8 -8 -8 -8 -8 -9
-0 -0 -0 -1 -1 -1 -1 -2 -2 -2 -2 -2 -3 -3 -3 -4 -4 -4 -4 -4 -4 -5 -5 -5 -5 -5 -5 -6 -6 -6 -6 -6 -6 -6 -6 -6 -7 -7 -7 -6 -6 -6 -6 -7 -7 -7 -7 -7 -8 -8 -8 -8 -8 -8 -8 -7 -7 -7 -8 -8 -8 -8 -8 -8 -8 -8 -9 -9 -9
-0 -0 -0 -1 -1 -1 -1 -1 -2 -2 -2 -2 -3 -3 -3 -4 -4 -4 -4 -4 -4 -4 -4 -5 -5 -5 -5 -6 -6 -6 -6 -6 -6 -6 -6 -6 -7 -7 -7 -7 -6 -6 -6 -6 -7 -7 -7 -7 -7 -8 -8 -8 -8 -8 -7 -7 -7 -7 -8 -8 -8 -8 -8 -8 -8 -8 -8 -9 -9
-0 -0 -0 -1 -1 -1 -1 -1 -1 -2 -2 -2 -3 -3 -3 -3 -4 -4 -4 -4 -4 -4 -4 -5 -5 -5 -5 -5 -5 -5 -5 -6 -6 -6 -6 -6 -7 -7 -7 -7 -7 -6 -6 -7 -7 -7 -7 -7 -7 -8 -8 -8 -8 -8 -7 -7 -7 -7 -8 -7 -7 -8 -8 -8 -8 -8 -8 -9 -9
-0 -0 -0 -1 -1 -1 -1 -1 -1 -2 -2 -2 -3 -3 -3 -3 -4 -4 -4 -4 -4 -4 -4 -4 -5 -5 -5 -5 -5 -5 -5 -5 -6 -6 -6 -6 -7 -7 -7 -7 -7 -7 -7 -7 -7 -7 -7 -7 -8 -8 -8 -8 -8 -8 -7 -7 -7 -7 -7 -7 -8 -8 -8 -8 -8 -8 -8 -9 -9
-0 -0 -0 -1 -1 -1 -1 -1 -1 -2 -2 -2 -2 -3 -3 -3 -4 -4 -4 -4 -4 -4 -4 -4 -5 -5 -5 -5 -5 -5 -5 -5 -5 -6 -6 -6 -7 -7 -7 -7 -7 -7 -7 -7 -7 -7 -7 -7 -8 -8 -8 -8 -8 -8 -7 -6 -7 -7 -7 -7 -8 -8 -8 -8 -8 -8 -8 -9 -9
Height
1531 1531 1531 1530 1530 1529 1528 1528 1527 1526 1526 1525 1524 1523 1523 1522 1521 1520 1520 1519 1518 1517 1516 1515 1514 1513 1512 1512 1511 1510 1510 1509 1508 1507 1506 1505 1505 1504 1503 1503 1502 1501 1500 1500 1499 1498 1496 1495 1494 1493 1492 1490 1489 1487 1485 1484 1483 1481 1479 1477 1475 1473 1471 1470 1468 1466 1464 1462 1460
1530 1530 1529 1529 1528 1527 1527 1526 1525 1525 1524 1523 1523 1522 1521 1520 1520 1519 1518 1517 1516 1515 1515 1514 1513 1512 1511 1510 1510 1509 1508 1507 1507 1506 1505 1504 1503 1503 1502 1501 1501 1500 1499 1498 1497 1496 1495 1494 1493 1492 1491 1489 1488 1486 1485 1483 1482 1480 1478 1476 1475 1473 1471 1469 1467 1465 1463 1461 1459
1528 1528 1528 1527 1526 1526 1525 1525 1524 1523 1522 1522 1521 1520 1520 1519 1518 1517 1516 1516 1515 1514 1513 1512 1511 1511 1510 1509 1509 1508 1507 1506 1505 1504 1504 1503 1502 1501 1500 1500 1499 1499 1498 1497 1496 1495 1494 1493 1492 1491 1490 1488 1487 1485 1484 1482 1481 1479 1477 1475 1474 1472 1470 1468 1466 1465 1463 1460 1458
1527 1526 1526 1525 1525 1524 1524 1523 1522 1522 1521 1520 1520 1519 1518 1517 1517 1516 1515 1515 1514 1513 1512 1511 1510 1510 1509 1508 1507 1506 1505 1505 1504 1503 1502 1501 1500 1500 1499 1498 1498 1497 1496 1495 1495 1494 1493 1492 1491 1490 1489 1487 1486 1485 1483 1481 1480 1478 1477 1475 1473 1471 1470 1468 1466 1464 1462 1460 1458
1525 1525 1525 1524 1523 1523 1522 1521 1521 1520 1520 1519 1518 1518 1517 1516 1515 1515 1514 1513 1512 1512 1511 1510 1509 1508 1507 1507 1506 1505 1504 1504 1503 1502 1501 1500 1499 1498 1497 1497 1496 1495 1495 1494 1493 1493 1492 1491 1490 1489 1488 1486 1485 1484 1482 1481 1479 1478 1476 1475 1473 1471 1469 1467 1465 1464 1462 1460 1458
1524 1523 1523 1523 1522 1521 1520 1520 1519 1519 1518 1517 1517 1516 1515 1515 1514 1513 1512 1512 1511 1510 1510 1509 1508 1507 1506 1505 1505 1504 1503 1502 1501 1500 1499 1498 1497 1497 1496 1495 1495 1494 1493 1493 1492 1491 1490 1490 1488 1487 1486 1485 1484 1483 1481 1480 1479 1477 1475 1474 1472 1470 1468 1467 1465 1463 1461 1459 1458
1522 1522 1521 1521 1520 1520 1519 1518 1518 1517 1517 1516 1515 1515 1514 1514 1513 1512 1511 1510 1510 1509 1508 1507 1506 1506 1505 1504 1503 1502 1501 1500 1500 1499 1498 1497 1496 1495 1495 1494 1493 1493 1492 1491 1490 1490 1489 1488 1487 1486 1485 1484 1483 1482 1480 1479 1478 1476 1474 1473 1471 1469 1468 1466 1464 1462 1460 1459 1457
1520 1520 1520 1519 1519 1518 1518 1517 1516 1516 1515 1515 1514 1514 1513 1512 1511 1511 1510 1509 1509 1508 1507 1506 1505 1504 1504 1503 1502 1501 1500 1499 1498 1497 1496 1495 1495 1494 1493 1492 1492 1491 1490 1490 1489 1488 1487 1487 1486 1485 1484 1483 1481 1480 1479 1478 1477 1475 1473 1472 1470 1469 1467 1465 1464 1462 1460 1458 1456
1519 1519 1518 1518 1517 1517 1516 1515 1515 1514 1514 1513 1513 1512 1511 1511 1510 1509 1509 1508 1507 1506 1505 1505 1504 1503 1502 1501 1500 1500 1499 1498 1497 1496 1495 1494 1493 1492 1491 1491 1490 1490 1489 1488 1488 1487 1486 1485 1484 1483 1482 1481 1480 1479 1478 1477 1475 1474 1472 1471 1469 1467 1466 1465 1463 1461 1460 1457 1455
1517 1517 1517 1516 1516 1515 1515 1514 1514 1513 1512 1512 1511 1511 1510 1510 1509 1508 1507 1506 1506 1505 1504 1503 1503 1502 1501 1500 1499 1498 1497 1496 1495 1495 1494 1493 1492 1491 1490 1489 1489 1488 1487 1487 1486 1485 1485 1484 1483 1482 1481 1480 1479 1478 1476 1475 1474 1473 1471 1470 1468 1466 1465 1464 1463 1461 1459 1457 1455
1516 1515 1515 1515 1514 1514 1513 1513 1512 1512 1511 1510 1510 1510 1509 1508 1507 1507 1506 1505 1505 1504 1503 1502 1501 1500 1500 1499 1498 1497 1496 1495 1494 1493 1492 1491 1490 1490 1489 1488 1487 1486 1486 1485 1485 1484 1483 1482 1481 1480 1479 1479 1477 1476 1475 1474 1473 1471 1470 1469 1467 1465 1464 1463 1461 1460 1458 1456 1454
1514 1514 1514 1513 1513 1512 1512 1511 1510 1510 1510 1509 1509 1508 1507 1507 1506 1505 1505 1504 1503 1502 1502 1501 1500 1499 1498 1498 1497 1496 1495 1494 1493 1492 1491 1490 1489 1488 1487 1487 1486 1485 1484 1484 1483 1482 1481 1480 1480 1479 1478 1477 1476 1475 1474 1473 1471 1470 1469 1467 1466 1465 1463 1461 1460 1459 1457 1455 1453
1513 1512 1512 1512 1511 1511 1510 1510 1509 1509 1508 1508 1507 1507 1506 1505 1505 1504 1503 1502 1502 1501 1500 1500 1499 1498 1497 1496 1495 1495 1494 1493 1492 1491 1490 1489 1488 1487 1486 1485 1485 1484 1483 1482 1482 1481 1480 1479 1478 1477 1476 1475 1474 1473 1472 1471 1470 1469 1467 1466 1465 1463 1462 1460 1459 1457 1456 1454 1452
1511 1511 1510 1510 1510 1509 1509 1508 1508 1507 1507 1506 1506 1505 1505 1504 1503 1503 1502 1501 1500 1500 1499 1498 1497 1497 1496 1495 1494 1493 1492 1491 1490 1489 1488 1487 1486 1485 1485 1484 1483 1482 1482 1481 1480 1480 1479 1478 1477 1476 1475 1473 1472 1472 1471 1470 1469 1467 1466 1465 1463 1462 1460 1459 1458 1456 1455 1453 1451
1510 1509 1509 1509 1508 1508 1507 1507 1506 1506 1505 1505 1505 1504 1503 1503 1502 1501 1500 1500 1499 1498 1498 1497 1496 1495 1495 1494 1493 1492 1491 1490 1489 1488 1487 1486 1485 1484 1484 1483 1482 1481 1480 1480 1479 1478 1477 1476 1475 1474 1473 1472 1471 1470 1469 1468 1467 1466 1465 1464 1462 1461 1460 1458 1457 1455 1454 1452 1450
1508 1508 1507 1507 1506 1506 1505 1505 1505 1505 1504 1504 1503 1503 1502 1501 1500 1500 1499 1498 1498 1497 1496 1495 1495 1494 1493 1493 1492 1490 1490 1489 1488 1487 1485 1485 1484 1483 1482 1481 1480 1480 1479 1478 1477 1477 1476 1475 1474 1473 1472 1470 1470 1469 1468 1467 1466 1465 1464 1462 1461 1460 1458 1457 1456 1454 1452 1451 1449
1506 1506 1506 1505 1505 1505 1504 1504 1503 1503 1503 1502 1502 1501 1500 1500 1499 1499 1498 1497 1496 1496 1495 1495 1494 1493 1492 1491 1490 1489 1488 1487 1486 1485 1484 1483 1482 1481 1480 1480 1479 1478 1478 1477 1476 1475 1474 1473 1473 1472 1470 1469 1468 1467 1466 1465 1464 1463 1462 1461 1460 1459 1457 1456 1455 1453 1452 1450 1448
1505 1504 1504 1504 1503 1503 1503 1502 1502 1501 1501 1501 1500 1500 1499 1499 1498 1497 1496 1496 1495 1495 1494 1493 1492 1491 1490 1490 1489 1488 1487 1486 1485 1484 1483 1482 1481 1480 1479 1479 1478 1477 1476 1475 1474 1473 1473 1472 1471 1470 1469 1468 1467 1466 1465 1464 1463 1461 1460 1459 1458 1457 1456 1455 1454 1452 1450 1449 1447
1503 1503 1502 1502 1502 1501 1501 1501 1500 1500 1500 1499 1499 1498 1498 1497 1496 1496 1495 1495 1494 1493 1492 1492 1491 1490 1490 1489 1488 1487 1486 1485 1484 1483 1482 1481 1480 1479 1478 1477 1476 1476 1475 1474 1473 1472 1471 1470 1469 1468 1467 1466 1465 1465 1464 1462 1461 1460 1459 1458 1456 1455 1454 1453 1452 1451 1449 1448 1446
1501 1501 1501 1500 1500 1500 1500 1499 1499 1499 1498 1498 1497 1497 1496 1496 1495 1495 1494 1493 1493 1492 1491 1490 1490 1489 1488 1487 1486 1485 1485 1484 1482 1481 1480 1480 1479 1478 1477 1476 1475 1474 1473 1472 1471 1470 1470 1469 1468 1467 1466 1465 1464 1463 1462 1461 1460 1458 1457 1456 1455 1454 1452 1451 1450 1449 1447 1446 1444
1499 1499 1499 1499 1499 1498 1498 1498 1497 1497 1497 1496 1496 1495 1495 1494 1494 1493 1492 1492 1491 1490 1490 1489 1488 1487 1487 1486 1485 1484 1483 1482 1481 1480 1479 1478 1477 1476 1475 1475 1474 1473 1472 1471 1470 1469 1468 1467 1466 1465 1465 1464 1463 1462 1460 1459 1458 1457 1455 1454 1453 1452 1451 1450 1448 1447 1445 1444 1442
1498 1498 1497 1497 1497 1497 1496 1496 1496 1495 1495 1495 1494 1494 1493 1493 1492 1492 1491 1490 1490 1489 1489 1488 1487 1486 1485 1485 1484 1483 1482 1481 1480 1479 1478 1477 1476 1475 1474 1473 1472 1471 1470 1469 1468 1467 1466 1465 1465 1464 1463 1462 1461 1460 1459 1457 1456 1455 1454 1453 1451 1450 1449 1447 1446 1445 1443 1441 1440
1496 1496 1496 1495 1495 1495 1495 1495 1494 1494 1494 1493 1493 1492 1492 1491 1491 1490 1490 1489 1488 1488 1487 1486 1485 1485 1484 1483 1482 1481 1480 1480 1479 1478 1477 1476 1475 1474 1473 1472 1471 1470 1469 1467 1466 1465 1464 1463 1462 1462 1461 1460 1459 1458 1457 1456 1455 1454 1452 1451 1449 1448 1447 1445 1444 1442 1440 1439 1437
1494 1494 1494 1494 1494 1493 1493 1493 1492 1492 1492 1492 1491 1491 1490 1490 1490 1489 1488 1488 1487 1486 1486 1485 1484 1484 1483 1482 1481 1480 1479 1478 1477 1477 1476 1475 1474 1473 1471 1470 1469 1468 1467 1466 1465 1464 1463 1462 1461 1460 1460 1459 1458 1457 1456 1455 1453 1452 1450 1449 1447 1446 1444 1443 1441 1440 1438 1437 1435
1492 1492 1492 1492 1492 1492 1491 1491 1491 1490 1490 1490 1490 1489 1489 1489 1488 1487 1487 1486 1486 1485 1485 1484 1483 1482 1481 1480 1480 1479 1478 1477 1476 1475 1474 1473 1472 1471 1470 1469 1468 1467 1466 1465 1464 1463 1462 1461 1461 1460 1460 1459 1458 1456 1455 1454 1452 1450 1449 1447 1445 1444 1442 1440 1439 1437 1436 1435 1433
1490 1490 1490 1490 1490 1490 1490 1490 1489 1489 1489 1488 1488 1488 1487 1487 1486 1486 1485 1485 1485 1484 1483 1482 1482 1481 1480 1479 1479 1478 1477 1476 1475 1474 1473 1471 1470 1470 1469 1467 1466 1465 1465 1464 1463 1462 1461 1461 1461 1460 1459 1458 1456 1455 1454 1452 1450 1449 1447 1445 1443 1441 1440 1438 1436 1435 1434 1433 1431
1488 1488 1488 1488 1488 1488 1488 1488 1488 1487 1487 1487 1486 1486 1486 1485 1485 1485 1484 1484 1483 1482 1482 1481 1480 1480 1479 1478 1477 1476 1475 1475 1474 1473 1471 1470 1469 1468 1467 1466 1465 1464 1463 1462 1461 1460 1460 1459 1459 1459 1458 1457 1455 1454 1452 1450 1449 1447 1445 1443 1441 1440 1438 1436 1435 1433 1432 1431 1430
1486 1486 1486 1486 1486 1486 1486 1486 1486 1486 1485 1485 1485 1485 1484 1484 1484 1483 1482 1482 1481 1481 1480 1480 1479 1478 1477 1477 1476 1475 1474 1473 1472 1471 1470 1469 1468 1467 1465 1465 1464 1463 1462 1461 1460 1459 1459 1458 1458 1457 1456 1455 1454 1452 1451 1449 1447 1445 1443 1441 1439 1438 1436 1435 1433 1431 1430 1429 1427
1484 1484 1485 1485 1485 1485 1484 1484 1484 1484 1484 1484 1483 1483 1483 1482 1482 1481 1481 1480 1480 1480 1479 1478 1478 1477 1476 1475 1475 1474 1473 1472 1471 1470 1469 1468 1466 1465 1465 1464 1463 1462 1461 1460 1459 1458 1457 1457 1456 1456 1455 1454 1453 1451 1449 1447 1445 1443 1441 1439 1437 1436 1435 1433 1431 1430 1428 1426 1425
1482 1482 1482 1482 1482 1482 1482 1482 1482 1482 1482 1482 1482 1481 1481 1481 1480 1480 1480 1479 1479 1478 1477 1477 1476 1475 1475 1474 1473 1472 1471 1471 1470 1469 1468 1466 1465 1464 1463 1462 1461 1461 1460 1459 1458 1457 1456 1455 1455 1455 1454 1453 1452 1450 1448 1445 1443 1441 1440 1438 1436 1435 1433 1431 1429 1428 1426 1424 1422
1480 1480 1480 1480 1480 1480 1480 1481 1480 1480 1480 1480 1480 1480 1480 1479 1479 1479 1478 1478 1477 1477 1476 1475 1475 1474 1473 1473 1472 1471 1470 1470 1469 1468 1466 1465 1464 1463 1462 1461 1460 1460 1459 1458 1457 1456 1455 1454 1454 1453 1452 1451 1450 1448 1446 1444 1442 1440 1439 1437 1435 1433 1431 1429 1427 1425 1424 1422 1420
1477 1478 1478 1478 1478 1479 1479 1479 1479 1479 1479 1478 1478 1478 1478 1478 1477 1477 1476 1476 1475 1475 1475 1474 1473 1473 1472 1471 1471 1470 1469 1468 1467 1466 1465 1464 1463 1462 1461 1460 1459 1458 1457 1457 1456 1455 1454 1453 1453 1452 1451 1450 1449 1447 1445 1442 1440 1439 1437 1435 1434 1431 1430 1427 1425 1423 1422 1420 1419
1475 1475 1476 1476 1476 1477 1477 1477 1477 1477 1477 1477 1476 1476 1476 1476 1476 1475 1475 1475 1474 1474 1473 1473 1472 1471 1470 1470 1469 1469 1468 1467 1466 1465 1464 1463 1462 1460 1460 1459 1458 1457 1456 1455 1455 1454 1453 1452 1451 1450 1450 1449 1447 1445 1443 1441 1439 1437 1435 1434 1432 1430 1428 1426 1424 1422 1420 1419 1418
1473 1473 1474 1474 1474 1475 1475 1475 1475 1475 1475 1475 1475 1475 1475 1475 1474 1474 1474 1473 1473 1472 1471 1471 1470 1470 1469 1469 1468 1467 1466 1466 1465 1464 1463 1462 1461 1460 1458 1457 1456 1456 1455 1454 1453 1453 1452 1451 1450 1449 1448 1447 1445 1443 1441 1439 1437 1435 1434 1432 1430 1429 1427 1425 1423 1421 1420 1418 1417
1471 1471 1472 1472 1472 1473 1473 1473 1473 1473 1473 1473 1473 1473 1473 1473 1473 1472 1472 1471 1471 1470 1470 1470 1469 1468 1468 1467 1467 1466 1465 1465 1464 1463 1462 1461 1460 1458 1457 1456 1455 1455 1454 1453 1452 1451 1450 1450 1449 1448 1447 1445 1443 1441 1439 1437 1435 1434 1432 1430 1429 1428 1426 1425 1423 1420 1419 1418 1416
1469 1470 1470 1470 1470 1470 1471 1471 1471 1471 1471 1471 1471 1471 1471 1471 1471 1471 1470 1470 1470 1469 1469 1468 1468 1467 1466 1466 1465 1465 1464 1463 1463 1462 1461 1460 1458 1457 1455 1455 1454 1454 1453 1452 1451 1450 1450 1449 1447 1446 1445 1444 1442 1440 1438 1435 1434 1433 1431 1430 1429 1427 1425 1423 1421 1420 1418 1417 1415
1467 1467 1468 1468 1468 1469 1469 1469 1469 1469 1469 1470 1470 1470 1470 1470 1469 1469 1469 1468 1468 1467 1467 1467 1466 1466 1465 1465 1464 1464 1463 1462 1461 1460 1460 1458 1457 1456 1454 1453 1452 1452 1452 1451 1450 1449 1448 1447 1446 1445 1444 1442 1440 1438 1436 1435 1434 1432 1431 1429 1427 1426 1424 1422 1420 1419 1418 1416 1414
1465 1465 1466 1466 1466 1467 1467 1467 1467 1467 1468 1468 1468 1468 1468 1468 1468 1468 1467 1467 1466 1466 1466 1465 1465 1465 1464 1463 1463 1462 1462 1461 1460 1459 1458 1457 1456 1455 1453 1452 1451 1450 1450 1450 1449 1448 1447 1446 1445 1444 1443 1442 1440 1437 1435 1434 1433 1432 1430 1428 1426 1425 1423 1421 1420 1418 1416 1415 1413
1463 1463 1464 1464 1465 1465 1465 1465 1465 1466 1466 1466 1466 1466 1466 1466 1466 1466 1466 1465 1465 1465 1464 1464 1464 1463 1463 1462 1461 1461 1460 1460 1459 1458 1457 1456 1455 1453 1452 1450 1450 1449 1449 1448 1448 1447 1446 1445 1444 1443 1442 1441 1439 1437 1435 1434 1433 1430 1429 1427 1425 1424 1422 1421 1419 1417 1416 1414 1412
1461 1461 1462 1462 1463 1463 1463 1464 1464 1464 1465 1465 1465 1465 1465 1465 1465 1465 1464 1464 1463 1463 1463 1462 1462 1462 1461 1461 1460 1460 1459 1458 1458 1457 1456 1455 1454 1452 1451 1450 1449 1448 1447 1447 1446 1445 1445 1444 1443 1443 1442 1440 1438 1436 1435 1434 1432 1430 1428 1426 1425 1423 1422 1420 1419 1417 1415 1413 1411
1459 1459 1460 1460 1460 1461 1461 1462 1462 1463 1463 1463 1463 1463 1463 1463 1463 1463 1463 1462 1462 1461 1461 1461 1460 1460 1460 1459 1459 1458 1457 1457 1456 1455 1455 1454 1452 1451 1450 1449 1447 1446 1446 1445 1445 1444 1444 1443 1442 1442 1441 1440 1437 1436 1435 1434 1431 1429 1427 1426 1424 1423 1421 1420 1418 1416 1414 1412 1410
Wind_Speed
14 14 15 15 16 16 16 16 16 16 16 17 17 17 17 17 17 16 16 16 16 17 17 17 17 17 17 16 16 16 17 17 17 18 18 18 18 18 17 16 16 15 15 15 16 17 18 19 20 21 22 23 23 22 22 22 23 24 25 26 27 28 28 29 29 30 31 32 33
14 15 15 16 16 16 16 16 16 16 16 17 17 17 17 17 17 17 16 16 16 16 16 17 17 17 17 16 16 16 17 17 18 18 18 18 18 18 17 16 16 15 15 15 15 16 17 18 19 20 21 22 22 22 22 22 22 23 24 25 26 27 28 29 29 30 31 32 33
14 15 15 16 16 16 17 16 16 16 16 17 17 17 17 17 17 17 16 16 16 16 16 16 16 16 16 16 16 16 17 17 18 18 19 19 18 18 17 16 15 15 14 14 15 15 16 17 17 19 20 21 21 21 21 21 21 22 24 25 26 27 28 28 29 30 31 32 33
15 15 16 16 16 17 17 17 16 16 16 16 17 17 17 17 17 16 16 16 16 16 16 16 16 16 16 16 16 16 17 17 18 18 19 19 18 18 17 16 16 15 14 14 14 15 15 16 16 17 18 20 20 20 20 20 21 21 23 24 25 26 27 28 29 29 30 31 32
15 15 16 16 16 17 17 17 16 16 16 16 17 17 17 17 16 16 16 16 16 15 16 16 16 16 16 16 16 16 17 17 17 18 18 19 18 18 17 16 16 15 14 14 14 15 15 15 16 16 17 18 19 19 19 19 20 21 21 22 23 24 25 27 28 29 30 31 31
15 15 16 16 17 17 17 16 16 16 16 16 17 17 17 16 16 16 16 16 15 15 15 15 16 16 16 16 16 17 17 17 17 18 18 18 19 18 18 17 16 15 14 14 14 15 15 15 16 16 16 17 18 18 18 19 19 20 21 21 22 23 24 25 26 28 29 30 30
15 16 16 16 17 17 17 16 16 16 16 16 17 17 16 16 16 16 16 15 15 15 15 15 15 15 16 16 16 17 17 17 18 18 18 18 19 18 18 17 16 15 14 14 14 15 15 16 16 16 16 16 17 17 18 18 19 19 20 21 22 22 23 24 25 26 27 28 29
15 16 16 16 17 17 17 16 16 16 16 16 16 16 16 16 16 16 15 15 15 15 15 15 15 16 16 16 16 17 17 18 18 18 18 18 19 19 18 18 17 16 15 14 15 15 16 16 16 16 16 16 17 17 17 18 19 19 20 20 21 22 23 23 24 25 26 27 28
15 16 16 16 17 17 17 16 16 16 16 16 16 16 16 16 16 15 15 15 15 15 15 15 15 16 16 16 16 17 17 17 18 18 18 19 19 19 19 18 17 16 15 14 15 15 16 16 16 16 16 16 16 17 17 18 19 19 20 20 21 21 22 23 23 24 25 26 27
15 16 16 16 17 17 17 16 16 16 16 16 16 16 16 16 15 15 15 15 15 15 15 15 15 16 16 16 16 17 17 17 18 18 19 19 19 19 19 18 18 17 16 15 15 16 16 17 17 17 16 16 16 17 17 18 19 19 20 20 20 21 22 22 23 23 24 25 26
15 16 16 16 17 17 17 16 16 16 16 16 16 16 16 15 15 15 15 15 15 15 15 15 15 16 16 16 16 17 17 18 18 18 19 19 19 19 18 18 18 17 16 16 15 16 17 17 17 17 17 17 17 17 17 18 19 20 20 20 20 20 21 22 22 23 23 24 24
15 16 16 16 17 17 17 16 16 16 16 16 16 16 15 15 15 15 15 15 14 14 15 15 15 16 16 16 16 17 17 18 18 18 19 19 19 18 18 18 18 17 17 16 16 16 17 17 18 18 18 18 17 18 18 18 19 20 21 21 21 21 21 21 22 22 23 23 24
16 16 16 16 17 17 17 17 16 16 16 16 16 16 15 15 15 14 14 14 14 14 14 15 15 16 16 16 17 17 17 18 18 18 19 19 19 18 18 18 18 18 17 17 17 17 17 18 18 18 18 18 18 18 18 19 20 21 22 23 23 23 23 22 22 22 22 22 23
16 16 16 17 17 17 17 17 16 16 16 16 16 15 15 15 14 14 14 14 14 14 15 15 15 15 16 16 17 17 17 18 18 19 19 19 18 18 18 18 18 18 18 17 17 18 18 18 19 19 19 19 19 19 19 19 20 22 23 24 25 26 26 25 24 23 22 22 23
16 16 16 17 17 17 17 17 16 16 16 16 16 15 15 14 14 14 14 14 14 14 15 15 15 15 16 16 17 17 17 18 18 19 19 19 19 18 18 18 18 18 18 18 18 18 19 19 19 19 20 20 20 19 19 19 20 22 24 26 27 28 28 27 26 25 24 23 23
16 16 17 17 17 17 17 17 17 16 16 16 15 15 15 14 14 14 14 14 14 14 14 15 15 15 15 16 16 17 17 18 18 19 19 19 19 19 18 18 18 18 18 19 19 19 19 20 20 20 20 20 20 19 19 19 20 22 24 26 28 29 29 29 29 28 27 25 24
16 16 17 17 17 17 17 17 17 16 16 16 15 15 15 14 14 14 14 14 14 14 14 14 15 15 15 16 16 17 17 18 18 19 19 19 19 19 19 19 19 19 19 19 20 20 20 20 20 21 21 21 20 19 19 19 20 21 23 25 27 28 29 30 31 31 30 29 27
16 17 17 17 17 17 17 17 17 16 16 16 15 15 14 14 14 13 13 14 14 14 14 14 15 15 15 16 16 16 17 18 18 19 19 19 19 19 19 19 19 19 19 20 20 20 21 21 21 21 21 20 20 19 19 19 20 22 23 25 26 27 28 29 30 31 31 31 31
17 17 17 17 17 17 17 17 17 16 16 16 15 15 14 14 14 13 13 13 14 14 15 15 15 15 15 16 16 16 17 18 18 19 19 19 19 19 19 19 19 19 19 20 20 20 21 21 21 21 21 20 19 19 19 20 21 23 25 25 26 27 28 28 29 30 31 32 33
17 17 17 17 17 17 17 17 16 16 16 16 15 15 14 14 14 13 13 13 14 14 14 15 15 15 15 16 16 16 17 17 18 18 19 19 19 19 19 19 19 19 19 19 20 20 21 21 21 21 20 19 19 19 20 22 24 26 27 27 28 28 28 28 29 30 31 32 33
17 17 17 17 17 17 17 17 16 16 16 16 15 15 14 14 14 14 13 13 14 14 14 15 15 15 15 15 16 16 16 17 18 18 19 19 18 18 19 19 19 19 19 19 19 20 21 21 21 20 19 19 19 20 22 24 26 28 29 29 29 29 29 30 30 31 32 33 34
17 17 17 17 17 17 17 16 16 16 16 16 15 15 14 14 14 14 13 13 14 14 14 14 15 15 15 16 16 16 16 17 17 18 18 18 18 18 18 18 19 19 19 19 20 20 21 21 21 20 20 20 21 22 24 26 27 28 29 30 30 31 31 32 32 33 34 35 35
17 17 17 17 17 17 17 16 16 16 16 15 15 15 14 14 14 14 13 13 14 14 14 14 15 15 15 16 16 16 17 17 17 17 18 18 18 18 18 18 19 19 19 20 20 21 21 22 21 21 22 23 24 25 26 27 28 28 29 30 31 31 32 33 34 34 34 34 33
17 17 17 17 17 17 16 16 16 16 16 16 15 15 15 14 14 14 14 13 14 14 14 14 15 15 15 15 16 16 17 17 17 17 17 17 18 18 18 18 19 19 19 20 20 20 21 22 22 23 24 25 26 27 27 28 28 28 29 30 31 32 33 34 33 33 32 31 30
17 18 17 17 17 17 16 16 16 16 16 16 15 15 15 14 14 14 14 14 14 14 14 14 14 15 15 15 15 16 16 17 17 17 17 17 17 17 18 18 19 19 19 19 19 19 20 21 22 23 24 24 25 26 26 27 27 28 30 31 32 33 34 34 33 31 29 27 27
18 18 18 17 17 17 16 16 16 16 16 16 15 15 15 14 14 14 14 14 14 14 14 14 14 14 15 15 15 15 16 16 17 17 18 18 18 18 18 18 18 19 19 19 19 19 19 20 21 22 22 23 24 25 25 26 28 29 30 31 33 34 34 34 33 31 28 27 27
18 18 18 17 17 17 16 16 16 16 16 15 15 15 15 15 14 14 14 14 14 14 14 14 14 14 14 15 15 15 15 16 16 17 17 18 18 18 18 18 18 18 18 18 18 18 19 20 21 21 21 21 23 24 25 27 28 29 31 32 33 34 35 35 34 33 31 30 30
18 18 17 17 17 16 16 16 16 16 15 15 15 15 15 15 14 14 14 14 14 14 14 14 14 14 14 14 15 15 15 15 16 16 17 17 18 18 18 18 18 17 17 17 17 18 19 19 20 20 20 21 22 24 26 27 29 30 31 33 34 34 35 35 35 34 34 34 34
18 18 18 17 17 16 16 16 16 16 15 15 15 15 15 15 14 14 14 14 14 14 14 14 14 14 14 14 14 14 15 15 16 16 17 17 18 18 18 17 17 16 16 16 17 17 18 19 19 20 20 21 22 24 26 28 29 30 32 33 34 35 35 35 35 35 36 36 36
18 18 18 17 17 16 16 16 16 15 15 15 15 15 15 14 14 14 14 14 14 14 14 14 14 14 13 14 14 14 15 15 15 16 17 17 18 18 17 17 16 16 15 15 16 17 17 18 19 20 20 21 23 24 26 28 30 31 32 34 35 36 36 36 37 37 37 38 38
19 18 18 17 17 16 16 16 16 16 15 15 15 15 15 14 14 14 13 14 14 14 14 14 13 13 13 13 14 14 14 15 15 16 17 17 18 18 17 17 16 15 15 15 15 16 17 19 20 20 21 22 23 24 26 28 30 31 33 34 35 36 37 38 39 40 40 40 40
19 18 18 17 17 16 16 16 16 16 15 15 15 15 14 14 14 13 13 13 13 13 13 13 13 13 13 13 13 13 14 14 15 16 16 17 18 18 17 17 15 15 14 14 15 16 17 19 20 21 21 22 23 24 26 28 30 31 33 34 36 37 39 40 42 43 43 42 40
19 19 18 17 17 16 16 16 16 16 15 15 15 14 14 14 13 13 13 13 13 13 13 13 13 12 12 12 13 13 13 14 15 16 16 17 18 18 18 16 15 14 14 14 15 16 17 19 20 21 22 23 23 25 26 28 30 32 34 35 37 39 40 41 42 42 41 39 36
20 19 18 17 17 16 16 16 16 16 15 15 15 14 14 13 13 13 13 13 13 13 13 12 12 12 12 12 13 13 13 14 15 15 16 17 18 18 17 16 15 14 14 14 14 15 17 19 20 21 22 23 24 25 27 29 31 33 36 37 38 38 37 36 36 35 33 32 30
20 19 18 17 17 16 16 16 16 16 15 15 14 14 13 13 13 12 12 12 13 12 12 12 12 12 12 12 13 13 14 14 15 15 16 17 18 18 18 16 14 13 13 13 14 15 16 18 20 21 22 23 25 26 28 31 34 36 36 35 34 33 31 30 28 27 26 26 25
20 19 18 17 17 16 16 16 16 16 15 15 14 13 13 13 12 12 12 12 12 12 12 11 11 11 12 12 12 13 13 14 15 15 16 17 18 18 18 17 15 13 12 13 13 14 16 18 20 21 23 24 26 28 31 34 35 34 32 30 29 29 28 26 24 24 24 25 26
20 19 18 17 17 17 16 16 16 16 15 14 13 13 13 13 12 12 12 12 12 12 11 11 11 11 11 11 12 12 13 13 14 15 15 16 17 18 18 18 16 14 12 12 13 14 15 17 19 21 23 25 27 30 33 35 32 29 27 28 29 29 27 25 24 25 27 29 29
20 19 18 18 17 17 17 17 16 16 15 14 13 13 13 13 12 12 12 12 12 12 11 11 10 10 11 11 11 12 12 12 14 15 15 16 16 17 18 18 17 15 13 13 13 14 15 16 18 20 22 24 27 30 33 32 28 26 27 30 31 30 27 25 25 28 32 33 31
21 20 19 18 17 17 17 17 16 15 14 14 13 13 13 12 12 11 11 11 12 11 11 10 10 10 10 11 11 11 11 12 13 14 15 15 16 16 17 18 18 16 15 13 13 14 14 15 17 19 21 23 26 30 32 29 26 27 30 31 31 29 27 26 28 32 35 35 31
21 20 19 18 18 17 17 17 16 15 14 14 14 13 13 12 12 11 11 11 11 11 11 10 10 10 10 11 11 11 11 12 12 13 14 15 15 16 16 17 17 17 16 14 14 14 14 15 17 19 21 22 26 30 31 28 26 28 30 31 30 29 28 28 31 34 36 34 30
21 20 20 19 18 17 17 16 16 15 15 14 14 13 13 12 12 11 11 11 11 11 10 10 10 10 10 10 11 11 12 12 12 13 14 15 15 15 15 16 16 16 16 15 14 13 13 15 16 18 20 21 25 28 30 28 28 29 30 30 29 28 29 30 33 35 35 34 29
Wind_Direction
295 298 300 302 303 304 305 307 309 311 313 314 315 316 316 316 317 318 318 319 320 321 322 324 326 328 330 330 328 327 325 325 324 323 321 320 319 319 319 318 317 317 320 325 330 333 335 336 335 335 336 339 342 344 345 346 345 345 346 347 349 351 353 354 353 351 348 345 343
293 296 298 300 301 303 304 306 308 310 312 314 315 316 316 316 316 317 318 319 320 320 321 323 325 326 326 327 325 324 323 322 322 320 319 317 317 316 316 315 314 314 317 322 327 331 333 333 333 334 336 339 342 344 346 347 347 348 349 351 352 353 354 355 355 353 350 347 344
292 295 297 299 300 302 303 305 307 309 312 314 315 315 315 315 316 316 317 318 319 320 321 322 323 324 325 324 324 323 322 321 320 318 317 315 315 314 313 312 311 311 314 318 323 328 330 330 331 332 334 337 340 343 346 348 349 349 350 352 353 354 354 354 355 354 352 349 346
291 294 296 298 299 300 302 304 306 308 311 312 313 314 314 314 314 315 316 317 317 318 319 320 321 323 324 323 323 322 322 320 318 316 314 313 312 312 311 310 309 309 310 314 319 324 326 327 327 329 331 335 338 341 344 346 348 350 350 352 353 353 353 353 354 354 353 351 348
289 293 295 297 298 299 301 302 305 307 309 310 311 311 312 312 312 313 314 315 315 316 317 319 320 322 322 322 321 321 320 319 317 315 313 312 311 310 309 309 307 307 307 310 315 319 322 323 323 325 328 331 335 339 342 344 346 348 350 352 352 352 352 352 352 353 353 352 350
288 291 293 295 296 297 299 301 303 305 307 308 309 309 309 310 310 311 312 313 314 315 316 318 319 319 320 320 320 320 319 318 317 315 313 311 310 310 309 308 306 305 305 307 311 315 318 319 319 320 322 326 330 334 338 341 342 344 347 349 351 351 351 350 350 351 352 352 351
287 290 292 293 294 295 297 299 302 304 306 307 307 307 307 307 308 309 310 311 312 314 315 316 317 318 318 319 319 319 318 318 317 315 313 312 311 310 309 308 306 304 303 304 307 311 314 315 315 316 317 320 323 328 333 336 338 340 343 346 348 349 348 347 348 349 350 351 352
285 288 291 292 293 294 296 298 300 302 303 304 305 305 305 306 306 307 308 309 311 312 313 315 316 317 317 317 318 318 318 317 317 316 314 313 312 311 310 309 306 303 301 302 304 307 310 311 311 311 312 314 317 321 326 330 333 335 338 341 344 346 346 345 345 346 348 350 352
284 287 289 290 292 293 295 296 298 300 301 302 302 303 303 304 305 306 307 308 309 311 313 314 316 316 316 316 317 317 317 317 317 316 315 314 313 313 312 310 307 304 301 301 302 305 307 307 307 307 307 307 310 314 319 324 327 331 334 337 341 343 343 343 342 343 345 348 351
282 285 287 288 290 292 293 295 296 298 299 300 301 302 302 303 304 304 306 307 309 311 313 314 314 315 315 315 316 316 316 316 316 316 316 315 315 314 313 312 309 306 303 301 302 303 305 305 305 304 303 302 303 307 312 317 322 325 329 333 336 339 340 340 339 340 342 346 349
281 284 286 287 289 290 291 293 295 296 298 299 300 301 301 301 302 303 304 306 309 311 312 313 313 313 314 314 315 315 315 316 316 316 316 316 316 316 314 313 311 307 304 302 302 303 304 305 304 303 301 300 300 302 306 312 316 320 324 328 331 334 336 337 337 338 339 342 347
279 282 284 286 288 289 290 291 293 295 297 298 299 299 299 300 300 302 304 306 308 310 311 312 312 312 313 313 314 314 314 314 315 315 316 317 317 316 315 314 311 309 306 304 302 303 304 305 305 304 303 301 299 301 304 308 312 316 318 321 324 327 330 333 335 336 337 340 343
277 280 283 285 286 287 289 290 292 293 295 296 297 297 298 298 300 301 303 306 308 310 311 311 311 311 312 312 313 313 313 314 314 315 316 317 317 317 316 314 312 310 307 304 303 302 304 305 306 306 305 303 301 302 304 308 312 313 315 316 317 319 322 327 332 335 336 337 340
276 279 282 284 285 286 287 288 290 292 293 294 295 296 297 298 299 301 304 306 308 310 310 310 310 310 311 311 312 312 313 313 314 315 316 317 317 316 315 314 312 310 307 305 303 302 303 305 306 307 306 305 303 304 306 310 313 315 314 314 313 313 316 321 327 332 334 334 336
275 278 281 282 284 285 286 287 289 290 292 293 294 295 296 298 299 302 304 306 308 309 309 310 310 310 310 311 311 312 312 312 313 314 315 316 316 316 314 313 311 309 307 305 303 302 303 305 307 307 307 305 304 305 307 311 316 318 318 316 313 312 313 317 323 328 330 332 334
274 277 279 281 283 284 285 286 288 289 291 292 293 295 296 297 299 301 303 305 307 307 308 309 309 310 310 310 311 311 311 312 312 313 314 315 316 315 314 312 311 309 307 305 304 303 304 305 306 307 307 306 304 305 307 311 316 320 322 321 318 316 316 318 321 324 326 329 331
273 276 278 280 282 283 284 285 287 288 290 292 293 294 295 297 299 301 303 304 305 306 307 308 309 310 311 311 311 311 311 312 313 313 314 315 315 315 314 312 310 309 307 305 304 304 305 306 307 307 307 306 305 304 306 309 314 319 322 323 322 321 320 320 321 322 323 325 327
271 275 277 279 281 282 283 284 286 287 289 291 292 293 295 297 298 300 302 303 304 306 307 308 309 310 311 312 312 312 312 312 313 314 314 315 315 314 313 311 310 308 306 305 305 305 306 307 308 308 308 307 306 305 306 309 313 317 319 320 320 320 320 320 320 320 320 320 322
270 273 276 278 280 281 282 283 285 287 288 289 291 292 294 296 298 299 301 302 304 306 307 308 309 311 311 312 313 314 314 313 313 314 314 314 314 313 311 310 309 307 306 306 306 306 308 308 309 309 309 310 309 310 311 313 315 316 316 316 316 317 317 317 318 317 317 316 316
268 272 275 277 279 280 281 282 284 285 287 289 290 292 293 295 297 299 301 302 303 305 306 308 310 311 312 313 314 314 315 315 314 314 314 314 313 312 311 310 309 308 307 307 307 308 309 309 309 309 310 312 314 316 317 318 317 316 315 315 314 314 315 315 315 315 313 312 312
267 271 273 275 277 278 279 281 283 284 286 288 289 291 292 295 297 299 300 302 303 305 306 308 309 311 312 313 314 315 316 316 315 315 315 314 313 312 311 311 310 310 310 310 310 310 310 309 309 309 311 314 317 320 320 319 318 317 315 315 314 314 314 314 313 313 311 311 310
266 269 272 273 275 277 278 280 282 284 285 287 288 290 292 294 296 298 300 302 304 305 306 307 309 310 312 314 315 316 317 318 317 316 315 314 313 313 313 313 313 313 313 314 313 312 311 309 309 310 313 317 320 320 319 318 316 315 314 313 313 313 313 312 311 311 311 311 311
264 267 269 272 274 275 277 279 281 283 285 286 287 289 291 293 295 297 300 302 303 304 306 307 308 310 312 314 315 317 318 318 317 316 315 314 314 314 315 316 316 316 316 316 315 313 312 311 312 314 317 319 319 318 316 314 312 311 311 311 311 311 310 310 310 310 311 312 312
262 265 268 270 272 274 276 278 280 282 283 285 286 288 290 292 294 296 298 301 303 304 305 306 307 309 311 314 315 317 317 318 318 317 316 316 316 317 318 319 319 319 319 318 316 314 313 313 314 315 316 316 314 313 311 310 309 308 308 308 308 308 308 308 309 310 312 313 314
261 264 267 269 271 273 275 277 279 281 282 283 285 286 288 290 293 295 297 300 301 302 303 304 306 308 311 313 314 316 317 317 318 318 318 318 319 320 321 321 321 321 320 319 317 315 314 312 311 311 311 310 309 308 307 307 307 306 306 306 305 305 305 306 308 310 313 315 316
259 262 265 268 269 271 273 275 277 279 280 282 283 285 287 289 291 294 296 298 300 301 302 304 305 308 310 312 314 315 317 318 318 319 320 321 322 322 323 323 322 322 321 320 318 316 314 311 308 307 307 306 306 306 306 306 306 306 305 304 303 302 302 304 306 310 313 315 316
257 261 264 266 268 270 272 274 276 277 279 280 282 284 285 287 290 292 295 297 298 300 301 303 305 307 310 312 314 316 317 319 320 321 321 322 323 323 324 323 323 323 322 320 319 317 314 311 308 308 307 307 307 307 307 306 306 305 304 302 301 301 301 303 305 308 310 312 314
255 259 262 265 267 269 271 273 274 276 278 279 280 282 283 285 288 290 293 295 297 299 300 302 304 306 309 311 313 316 318 320 322 323 323 323 323 323 323 322 322 322 321 320 318 316 313 312 311 311 311 310 309 308 307 306 305 303 302 301 300 301 302 303 306 307 309 310 312
254 258 260 263 265 267 269 271 273 275 276 277 278 280 281 283 285 288 292 294 296 298 299 301 303 305 307 309 312 315 318 321 323 324 325 324 323 323 322 321 321 321 320 318 317 315 314 314 314 314 314 312 310 308 307 305 303 301 300 300 300 301 303 304 306 307 308 309 311
252 255 258 261 263 265 267 269 271 273 274 275 277 278 279 281 284 287 290 293 295 297 298 300 302 304 307 310 313 315 319 321 324 325 325 324 323 322 322 321 320 319 318 316 315 315 317 317 317 316 315 313 311 308 306 303 301 300 299 299 300 301 302 303 303 304 305 307 309
250 253 256 259 261 264 266 268 269 271 272 273 275 276 278 280 282 285 288 290 292 294 296 299 301 304 307 310 312 315 318 320 322 324 324 324 323 323 322 320 318 317 314 313 313 316 318 318 318 317 315 314 312 308 305 302 301 300 299 299 300 300 301 301 302 302 303 305 307
248 251 255 257 260 262 264 266 267 269 270 271 273 274 276 278 280 283 286 288 291 293 295 297 300 302 305 307 309 312 315 318 320 323 324 325 324 323 322 319 317 314 311 310 312 315 318 318 318 317 316 314 312 308 305 302 301 301 300 300 301 302 303 304 304 305 305 306 308
246 250 253 255 258 260 261 263 265 267 268 269 271 272 273 275 278 281 283 287 289 292 294 296 298 300 303 305 307 310 313 316 319 322 323 324 324 323 321 319 315 311 308 307 309 313 316 317 316 316 316 315 312 308 305 303 302 302 302 304 306 308 310 311 312 313 313 313 315
245 248 251 254 256 257 259 261 263 264 266 267 268 270 272 273 275 278 281 284 287 290 293 295 298 300 302 305 307 310 312 315 318 320 321 322 323 322 321 318 315 310 306 305 307 311 314 316 316 317 316 315 312 308 306 305 305 306 308 310 313 318 322 325 327 327 327 326 326
243 247 249 252 253 255 257 259 261 263 264 265 266 268 269 271 274 276 278 281 284 287 291 294 296 299 301 304 306 309 311 313 315 318 320 321 322 322 321 319 316 309 304 301 302 307 312 315 316 317 317 315 313 311 310 310 311 313 316 320 326 332 337 340 342 344 343 341 338
242 245 247 250 251 253 255 257 259 261 262 263 264 265 267 269 272 274 276 279 282 285 289 292 295 297 299 301 304 306 308 311 313 316 318 320 321 322 322 321 318 311 303 298 298 303 309 313 316 317 318 317 317 316 315 316 318 322 328 336 341 344 346 348 351 352 351 347 344
241 243 246 248 249 251 253 255 257 259 261 262 263 263 265 266 269 271 274 277 281 284 288 291 293 295 298 300 301 304 307 310 312 315 318 321 322 322 322 322 321 315 307 298 297 301 307 313 316 319 321 322 321 320 319 321 325 334 343 348 348 347 347 348 352 353 351 348 345
239 242 244 246 247 249 251 253 256 257 259 260 261 261 262 264 266 269 272 276 279 283 286 289 291 294 297 299 302 305 308 311 313 316 319 321 323 322 322 322 322 319 313 304 301 303 307 313 318 323 326 326 324 323 323 327 335 346 351 350 348 346 346 348 351 351 350 348 346
238 240 242 244 246 247 250 252 254 256 257 258 258 259 260 262 264 267 270 273 278 281 285 288 291 294 297 299 303 306 310 313 316 318 320 322 323 323 322 321 321 320 317 311 306 306 308 314 321 327 329 329 327 326 327 332 343 351 351 349 346 344 344 346 349 350 349 348 347
236 239 240 242 244 246 248 251 253 254 255 255 255 256 258 261 263 265 268 271 276 280 284 289 292 296 298 301 305 309 313 316 319 320 321 323 324 324 323 321 320 319 317 314 310 307 309 315 324 330 332 333 331 330 331 336 346 350 349 347 345 343 342 344 346 347 348 348 348
235 237 239 240 242 244 246 249 251 252 252 253 254 255 257 259 261 263 266 270 274 278 283 288 293 297 300 304 308 312 316 319 322 323 323 324 326 326 325 322 319 318 316 314 310 307 310 318 327 332 334 335 334 333 334 338 346 349 348 346 344 342 341 343 344 346 347 348 349